Weather in Zlynka

Ukraine / Kirovohrad Region     48°29′27″N   31°32′15″E
temp.,
°C
wind,
m/s
gust,
m/s
humid.,
%
clouds,
%
prec.,
mm/h
press.,
hPa
HPBL,
m
17 may, tue
tue1700:00+10wnw338276 0.0 101835
03:00+11n357742 0.0 1017136
06:00+10nne3470100 0.0 101786
09:00+14n234987 0.0 1017459
12:00+17wnw46388 0.0 10162062
15:00+19wnw683583 0.0 10142805
18:00+18nw5846100 0.0 10132452
21:00+14nnw3958100 0.0 1013336
18 may, wed
wed1800:00+11nnw3752100 0.0 1013217
03:00+8nnw4959100 0.0 1013261
06:00+6nnw51062100 0.0 1014319
09:00+10n79595 0.0 1015985
12:00+12n9105882 1.1 10161794
15:00+11nnw81067100 2.1 10171403
18:00+9n6118090 0.4 10191077
21:00+9n8148632 0.8 1021737
19 may, thu
thu1900:00+7n615864 0.0 1023503
03:00+5nnw513925 0.0 1024325
06:00+5nnw410935 0.0 1024241
09:00+11n69645 0.0 1025962
12:00+16n684925 0.0 10251780
15:00+18nnw674323 0.0 10232175
18:00+18nnw674985 0.0 10231957
21:00+12nw3569100 0.0 102465
20 may, fri
fri2000:00+10wnw35805 0.0 102368
03:00+8nw37845 0.0 1023111
06:00+8nw35845 0.0 102398
09:00+15wnw345770 0.0 1023475
12:00+20w4543100 0.0 10211370
15:00+21w5641100 0.0 10191550
18:00+19w4852100 0.0 1017428
21:00+15sw476593 0.0 1016116
21 may, sat
sat2100:00+14sw4116879 0.0 1014178
03:00+13wsw51468100 0.1 1012293
06:00+13wsw5117998 0.2 1011274
09:00+18w61074100 0.3 1010675
12:00+19w7979100 0.7 1008903
15:00+15w61296100 6.0 1008636
18:00+15w4995100 2.8 1008596
21:00+13nne4696100 4.2 1008308